Regional Weather Roundup
Issued by NWS Burlington, VT

Home | Current Version | Previous Version | Text Only | Print | Product List | Glossary On
Versions: 1 2 3 4 5 6 7 8 9 10 11 12 13 14 15 16 17 18 19 20 21 22 23 24 25 26 27 28 29 30 31 32 33 34 35 36 37 38 39 40 41 42 43 44 45 46 47 48 49 50
000
ASUS41 KBTV 202310
RWRBTV
VERMONT REGIONAL WEATHER ROUNDUP
NATIONAL WEATHER SERVICE BURLINGTON VT
700 PM EDT SUN APR 20 2014

NOTE: "FAIR" INDICATES FEW OR NO CLOUDS BELOW 12,000 FEET WITH NO
SIGNIFICANT WEATHER AND/OR OBSTRUCTIONS TO VISIBILITY.

* THESE REPORTS ARE NOT UNDER NWS QUALITY CONTROL AND/OR DO NOT
  REPORT WEATHER SUCH AS PRECIPITATION AND FOG.

VTZ001>019-210000-
_____VERMONT_____


CITY           SKY/WX    TMP DP  RH WIND       PRES   REMARKS
BURLINGTON     MOCLDY    59  18  20 S9        30.26F
MONTPELIER     PTCLDY    57  10  15 SW8       30.31F
MORRISVILLE    PTCLDY    57  24  28 CALM      30.27F
ST. JOHNSBURY*   N/A     58  10  15 MISG      30.27F
LYNDONVILLE*   MOCLDY    56   1  10 S7        30.29F
MIDDLEBURY*    FAIR      58  20  23 SE8       30.28F
RUTLAND*       CLEAR     59  18  20 W5        30.30S
SPRINGFIELD    CLEAR     58  14  17 S6        30.31F
HIGHGATE*      FAIR      59  17  19 CALM      30.25F
NEWPORT*       FAIR      57  10  15 S3        30.27F
BENNINGTON     CLEAR     60  15  17 SW5       30.29F

_____LAKE CHAMPLAIN_____


CITY           SKY/WX    TMP DP  RH WIND       PRES   REMARKS
COLCHESTER RF*   N/A     46  30  53 S10         N/A
DIAMOND ISL*     N/A     59  25  27 S9          N/A

$$

NYZ007-026>031-035-052-083-210000-
_____NORTHERN NEW YORK_____


CITY           SKY/WX    TMP DP  RH WIND       PRES   REMARKS
PLATTSBURGH    MOCLDY    57  21  24 SE13      30.24F
SARANAC LAKE   PTCLDY    58  11  15 W6        30.22F
MASSENA        PTCLDY    56  28  34 NE6       30.24F
OGDENSBURG*    CLEAR     61  27  27 CALM      30.22F
POTSDAM*       CLEAR     57  28  33 W7        30.22F
WATERTOWN      PTCLDY    63  29  27 N3        30.22F
FT DRUM        PTCLDY    62  24  23 S7        30.22F
ALBANY         PTCLDY    62  18  18 S8        30.30F
GLENS FALLS    CLEAR     62  19  19 S8        30.29F

$$
NHZ002-005-011-210000-
_____NEW HAMPSHIRE_____


CITY           SKY/WX    TMP DP  RH WIND       PRES   REMARKS
LEBANON        CLEAR     59  13  16 S9        30.29F
KEENE          CLEAR     59  16  18 S8        30.33F
MT WASHINGTON  PTCLDY    32  12  43 W23         N/A
PLYMOUTH         N/A     57  14  18 S5        30.31S
WHITEFIELD     CLEAR     55  14  19 W6        30.29F

$$

_____REGIONAL QUEBEC LOCATIONS_____


CITY           SKY/WX    TMP DP  RH WIND       PRES   REMARKS
MONTREAL       CLOUDY    55  21  26 SE9       30.25F
QUEBEC CITY    CLOUDY    43  23  45 S5        30.30F
SHERBROOKE     CLOUDY    54  10  17 CALM      30.27F

_____REGIONAL ONTARIO LOCATIONS_____


CITY           SKY/WX    TMP DP  RH WIND       PRES   REMARKS
OTTAWA         MOCLDY    57  25  28 S5        30.22F

______KEY______
VSB  - VISIBILITY IN MILES
WCI  - WIND CHILL INDEX
HX   - HEAT INDEX
$$
NNNN



USA.gov is the U.S. government's official web portal to all federal, state and local government web resources and services.